EW6762 Weather Reports


time (UTC)temp
F
wind
direction
speed
knots
gust
knots
rain 1hr
in
rain 24hr
in
rain mn
in
humidity
%
barometer
mb
20260506070323 64 153 2.6 4.3 0.00 0.00 0.00 83 1015.8
20260506062334 65 127 2.6 5.2 0.00 0.00 0.00 81 1016.2
20260506061311 65 157 2.6 7.0 0.00 0.00 0.00 81 1016.3
20260506060323 65 153 2.6 6.1 0.00 0.00 0.00 81 1016.5
20260506051317 66 150 2.6 8.7 0.00 0.00 0.00 79 1016.8
20260506050337 66 119 1.7 7.0 0.00 0.00 0.00 79 1016.9
20260506044328 67 149 1.7 7.8 0.00 0.00 0.00 78 1017.0
20260506043321 67 148 2.6 7.0 0.00 0.00 0.00 78 1017.1
20260506042321 67 147 2.6 7.8 0.00 0.00 0.00 77 1017.1
20260506041333 67 150 3.5 8.7 0.00 0.00 0.00 77 1017.1
20260506040311 67 150 3.5 8.7 0.00 0.00 0.00 77 1017.2
20260506035353 68 108 2.6 7.0 0.00 0.00 0.00 77 1017.3
20260506034326 68 162 3.5 8.7 0.00 0.00 0.00 76 1017.2
20260506033329 68 150 3.5 8.7 0.00 0.00 0.00 76 1017.2
20260506032351 68 147 4.3 9.6 0.00 0.00 0.00 76 1017.4
20260506031346 69 136 4.3 10.4 0.00 0.00 0.00 75 1017.4
20260506030329 69 136 4.3 8.7 0.00 0.00 0.00 75 1017.5
20260506025323 69 88 5.2 8.7 0.00 0.00 0.00 75 1017.5
20260506024318 69 155 4.3 8.7 0.00 0.00 0.00 74 1017.5
20260506023325 70 159 4.3 9.6 0.00 0.00 0.00 74 1017.3
20260506022341 70 101 3.5 10.4 0.00 0.00 0.00 73 1017.4
20260506021321 70 139 3.5 9.6 0.00 0.00 0.00 72 1017.3
20260506020318 70 79 2.6 10.4 0.00 0.00 0.00 71 1017.1
20260506015313 71 113 3.5 9.6 0.00 0.00 0.00 70 1017.1
20260506014314 71 159 3.5 10.4 0.00 0.00 0.00 70 1016.9
20260506013311 71 172 3.5 9.6 0.00 0.00 0.00 69 1016.8
20260506012330 72 123 4.3 9.6 0.00 0.00 0.00 69 1016.8
20260506011329 72 206 4.3 7.8 0.00 0.00 0.00 68 1016.7
20260506010331 73 133 5.2 7.8 0.00 0.00 0.00 67 1016.5
20260506005329 73 144 4.3 8.7 0.00 0.00 0.00 66 1016.3
20260506004324 74 155 4.3 8.7 0.00 0.00 0.00 66 1016.2
20260506003320 74 144 6.1 8.7 0.00 0.00 0.00 65 1016.1
20260506002343 75 114 5.2 12.2 0.00 0.00 0.00 64 1015.9
20260506001317 75 146 4.3 8.7 0.00 0.00 0.00 63 1015.9
20260506000319 76 116 5.2 10.4 0.00 0.00 0.00 62 1015.7
20260505235313 76 138 2.6 7.0 0.00 0.00 0.00 61 1015.8
20260505234334 77 182 4.3 9.6 0.00 0.00 0.00 59 1015.6
20260505233310 78 107 6.1 11.3 0.00 0.00 0.00 58 1015.5
20260505232327 78 137 6.1 11.3 0.00 0.00 0.00 57 1015.5
20260505231327 79 149 4.3 13.0 0.00 0.00 0.00 55 1015.3
20260505230329 80 182 4.3 11.3 0.00 0.00 0.00 55 1015.4
20260505225323 81 160 2.6 10.4 0.00 0.00 0.00 53 1015.5
20260505224317 82 145 2.6 11.3 0.00 0.00 0.00 53 1015.5
20260505223320 83 182 4.3 8.7 0.00 0.00 0.00 52 1015.5
20260505222338 83 150 4.3 13.9 0.00 0.00 0.00 51 1015.5
20260505221318 83 140 3.5 8.7 0.00 0.00 0.00 50 1015.7
20260505220311 83 132 4.3 10.4 0.00 0.00 0.00 52 1015.7
20260505215334 84 151 6.1 8.7 0.00 0.00 0.00 50 1015.6
20260505214310 84 122 6.1 12.2 0.00 0.00 0.00 48 1015.8
20260505213326 84 168 4.3 15.6 0.00 0.00 0.00 48 1015.7
20260505212324 83 174 3.5 11.3 0.00 0.00 0.00 48 1015.7
20260505211320 84 113 2.6 16.5 0.00 0.00 0.00 48 1015.8
20260505210316 84 126 3.5 13.0 0.00 0.00 0.00 46 1015.8
20260505205340 85 134 4.3 9.6 0.00 0.00 0.00 48 1015.8
20260505204315 85 165 5.2 13.0 0.00 0.00 0.00 48 1015.9
20260505203323 84 212 4.3 8.7 0.00 0.00 0.00 49 1015.9
20260505202314 85 135 5.2 11.3 0.00 0.00 0.00 48 1015.8
20260505201333 86 130 8.7 14.8 0.00 0.00 0.00 45 1016.0
20260505200331 86 136 4.3 11.3 0.00 0.00 0.00 46 1016.0
20260505195346 85 153 3.5 9.6 0.00 0.00 0.00 46 1016.1
20260505194320 85 139 5.2 9.6 0.00 0.00 0.00 47 1016.4
20260505193318 85 142 6.1 10.4 0.00 0.00 0.00 46 1016.7
20260505192311 85 154 4.3 12.2 0.00 0.00 0.00 47 1016.9
20260505191334 85 155 5.2 13.9 0.00 0.00 0.00 47 1016.8
20260505190328 84 150 4.3 8.7 0.00 0.00 0.00 47 1016.9
20260505185349 84 138 4.3 10.4 0.00 0.00 0.00 47 1017.2
20260505184324 85 219 5.2 9.6 0.00 0.00 0.00 48 1017.3
20260505183324 85 159 7.8 13.9 0.00 0.00 0.00 46 1017.4
20260505182318 84 141 4.3 13.0 0.00 0.00 0.00 48 1017.4
20260505181315 85 211 4.3 11.3 0.00 0.00 0.00 48 1017.5
20260505180334 85 137 5.2 9.6 0.00 0.00 0.00 48 1017.6
20260505175332 85 169 2.6 9.6 0.00 0.00 0.00 47 1017.7
20260505174327 85 178 2.6 7.0 0.00 0.00 0.00 47 1017.8
20260505173323 85 132 5.2 9.6 0.00 0.00 0.00 48 1017.8
20260505172320 85 148 1.7 7.0 0.00 0.00 0.00 49 1017.8
20260505171314 85 257 5.2 9.6 0.00 0.00 0.00 48 1017.9
20260505170335 84 153 3.5 11.3 0.00 0.00 0.00 50 1017.8
20260505165310 84 160 3.5 11.3 0.00 0.00 0.00 50 1018.1
20260505164329 84 125 3.5 10.4 0.00 0.00 0.00 49 1018.2
20260505163317 83 128 3.5 10.4 0.00 0.00 0.00 54 1018.2
20260505162309 82 131 6.1 10.4 0.00 0.00 0.00 54 1018.3
20260505161311 81 207 5.2 9.6 0.00 0.00 0.00 54 1018.5
20260505160322 81 146 3.5 9.6 0.00 0.00 0.00 52 1018.6
20260505153327 80 229 5.2 8.7 0.00 0.00 0.00 54 1018.8
20260505152324 80 206 2.6 8.7 0.00 0.00 0.00 54 1018.8
20260505151334 79 142 4.3 7.8 0.00 0.00 0.00 57 1018.9
20260505150328 78 249 2.6 10.4 0.00 0.00 0.00 58 1018.8
20260505140328 73 213 3.5 8.7 0.00 0.00 0.00 65 1018.8
20260505130310 68 238 2.6 7.0 0.00 0.00 0.00 73 1018.8
20260505124319 66 217 2.6 7.0 0.00 0.00 0.00 75 1018.7
20260505123312 65 134 1.7 7.8 0.00 0.00 0.00 77 1018.7
20260505122313 63 241 2.6 7.0 0.00 0.00 0.00 78 1018.7
20260505121328 63 184 2.6 6.1 0.00 0.00 0.00 79 1018.8
20260505120329 62 227 3.5 7.0 0.00 0.00 0.00 80 1018.7
20260505115321 61 215 1.7 5.2 0.00 0.00 0.00 81 1018.6
20260505114321 60 225 2.6 4.3 0.00 0.00 0.00 81 1018.5
20260505113318 59 207 0.9 5.2 0.00 0.00 0.00 83 1018.5
20260505112336 59 184 0.9 2.6 0.00 0.00 0.00 82 1018.4
20260505111328 58 150 1.7 3.5 0.00 0.00 0.00 83 1018.4
20260505110309 57 142 1.7 2.6 0.00 0.00 0.00 83 1018.2
20260505101324 57 141 0.9 2.6 0.00 0.00 0.00 83 1017.5
20260505100324 57 128 0.9 2.6 0.00 0.00 0.00 83 1017.4
20260505095317 57 153 0.9 2.6 0.00 0.00 0.00 82 1017.4
20260505094311 57 134 0.9 2.6 0.00 0.00 0.00 82 1017.4
20260505093310 57 121 0.9 1.7 0.00 0.00 0.00 81 1017.4
20260505092329 58 126 0.0 2.6 0.00 0.00 0.00 81 1017.4
20260505091322 58 186 0.9 2.6 0.00 0.00 0.00 80 1017.3
20260505090319 58 129 0.0 2.6 0.00 0.00 0.00 80 1017.3
20260505085321 58 157 0.9 2.6 0.00 0.00 0.00 80 1017.2
20260505084315 58 116 0.0 2.6 0.00 0.00 0.00 79 1017.1
20260505083325 59 138 0.9 2.6 0.00 0.00 0.00 78 1017.0
20260505082312 59 155 0.9 2.6 0.00 0.00 0.00 77 1016.9
20260505081349 60 127 0.9 2.6 0.00 0.00 0.00 76 1016.9
20260505080317 61 93 0.9 1.7 0.00 0.00 0.00 75 1016.9
20260505075315 61 91 0.9 2.6 0.00 0.00 0.00 74 1016.9
20260505074325 62 88 1.7 2.6 0.00 0.00 0.00 73 1016.9
20260505073324 62 124 1.7 4.3 0.00 0.00 0.00 72 1016.9
20260505072316 63 130 0.9 6.1 0.00 0.00 0.00 72 1016.8
20260505071312 63 126 2.6 6.1 0.00 0.00 0.00 71 1016.8